TimeMST,TemperatureF,Dew PointF,Humidity,Sea Level PressureIn,VisibilityMPH,Wind Direction,Wind SpeedMPH,Gust SpeedMPH,PrecipitationIn,Events,Conditions,WindDirDegrees,DateUTC
12:53 AM,28.0,21.9,78,30.30,10.0,NNW,11.5,-,N/A,,Mostly Cloudy,330,2012-11-15 07:53:00
1:53 AM,28.0,21.9,78,30.30,10.0,NW,9.2,-,N/A,,Mostly Cloudy,310,2012-11-15 08:53:00
2:53 AM,28.0,21.9,78,30.31,10.0,WNW,8.1,-,N/A,,Clear,290,2012-11-15 09:53:00
3:53 AM,33.1,23.0,66,30.29,10.0,WSW,11.5,-,N/A,,Scattered Clouds,250,2012-11-15 10:53:00
5:53 AM,25.0,19.0,78,30.35,10.0,WNW,8.1,-,N/A,,Partly Cloudy,300,2012-11-15 12:53:00
6:53 AM,24.1,18.0,77,30.36,10.0,NW,10.4,-,N/A,,Clear,310,2012-11-15 13:53:00
7:53 AM,25.0,18.0,75,30.37,10.0,WNW,8.1,-,N/A,,Clear,300,2012-11-15 14:53:00
8:53 AM,32.0,21.0,64,30.34,10.0,West,11.5,20.7,N/A,,Clear,270,2012-11-15 15:53:00
9:53 AM,39.0,21.0,49,30.30,10.0,West,18.4,33.4,N/A,,Clear,260,2012-11-15 16:53:00
10:53 AM,42.1,23.0,47,30.30,10.0,WSW,18.4,29.9,N/A,,Clear,240,2012-11-15 17:53:00
11:53 AM,44.1,21.9,42,30.25,10.0,SW,21.9,31.1,N/A,,Clear,220,2012-11-15 18:53:00
12:53 PM,45.0,23.0,42,30.22,10.0,SW,21.9,28.8,N/A,,Clear,220,2012-11-15 19:53:00
1:53 PM,46.0,21.9,39,30.19,10.0,SW,19.6,31.1,N/A,,Clear,230,2012-11-15 20:53:00
2:53 PM,46.0,21.0,37,30.18,10.0,SW,19.6,27.6,N/A,,Clear,230,2012-11-15 21:53:00
3:53 PM,45.0,21.0,39,30.16,10.0,SW,19.6,26.5,N/A,,Clear,230,2012-11-15 22:53:00
4:53 PM,42.1,21.0,43,30.16,10.0,WSW,21.9,34.5,N/A,,Clear,250,2012-11-15 23:53:00
5:53 PM,42.1,19.9,41,30.19,10.0,West,18.4,25.3,N/A,,Clear,260,2012-11-16 00:53:00
6:53 PM,42.1,19.9,41,30.17,10.0,West,20.7,31.1,N/A,,Clear,270,2012-11-16 01:53:00
7:53 PM,41.0,21.0,45,30.17,10.0,West,17.3,-,N/A,,Clear,260,2012-11-16 02:53:00
8:53 PM,41.0,21.9,47,30.12,10.0,West,18.4,-,N/A,,Clear,260,2012-11-16 03:53:00
9:53 PM,42.1,24.1,49,30.08,10.0,West,18.4,28.8,N/A,,Clear,270,2012-11-16 04:53:00
10:53 PM,43.0,25.0,49,30.04,10.0,West,20.7,28.8,N/A,,Clear,260,2012-11-16 05:53:00
11:53 PM,43.0,25.0,49,30.03,10.0,West,15.0,24.2,N/A,,Clear,260,2012-11-16 06:53:00